CW0230 Weather Reports


Display with metric or nautical units.
time (UTC)temp
F
wind
direction
speed
MPH
gust
MPH
rain 1hr
in
rain 24hr
in
rain mn
in
humidity
%
barometer
mb
20260504202005 56 331 2.0 3.0 0.01 0.03 0.03 91 1014.5
20260504200505 57 353 2.0 3.0 0.01 0.02 0.02 90 1014.4
20260504200005 57 352 2.0 3.0 0.01 0.02 0.02 89 1014.4
20260504195504 57 19 1.0 3.0 0.01 0.02 0.02 89 1014.4
20260504195005 57 6 2.0 5.0 0.01 0.02 0.02 89 1014.3
20260504194504 57 13 2.0 7.0 0.01 0.02 0.02 89 1014.3
20260504193005 57 17 0.0 2.0 0.01 0.02 0.02 89 1014.2
20260504192504 57 17 0.0 2.0 0.01 0.02 0.02 89 1014.2
20260504192005 57 17 1.0 2.0 0.01 0.02 0.02 89 1014.2
20260504190505 58 92 2.0 3.0 0.00 0.02 0.02 88 1014.0
20260504185004 58 62 2.0 5.0 0.00 0.02 0.02 87 1013.9
20260504183005 58 30 1.0 3.0 0.00 0.02 0.02 87 1013.9
20260504181504 58 39 2.0 6.0 0.00 0.02 0.02 87 1013.8
20260504180505 58 351 2.0 5.0 0.00 0.02 0.02 87 1013.7
20260504180005 58 350 2.0 5.0 0.00 0.02 0.02 87 1013.7
20260504175505 58 30 3.0 5.0 0.00 0.02 0.02 87 1013.7
20260504174504 58 17 2.0 8.0 0.00 0.02 0.02 86 1013.7
20260504172004 59 8 4.0 12.0 0.01 0.02 0.02 84 1013.5
20260504171505 59 46 4.0 14.0 0.01 0.02 0.02 83 1013.5
20260504141005 66 345 2.0 6.0 0.00 0.00 0.00 64 1013.3
20260504140504 67 347 3.0 6.0 0.00 0.00 0.00 63 1013.3
20260504130504 68 30 2.0 6.0 0.00 0.00 0.00 54 1013.5
20260504110505 64 43 2.0 6.0 0.00 0.00 0.00 68 1013.9
20260504081505 57 162 0.0 3.0 0.00 0.00 0.00 85 1013.9
20260504050006 53 140 0.0 0.0 0.00 0.00 0.00 92 1012.1
20260504044504 53 140 1.0 2.0 0.00 0.00 0.00 92 1012.1
20260504043504 53 140 1.0 3.0 0.00 0.00 0.00 93 1012.1
20260504041504 53 140 0.0 2.0 0.00 0.00 0.00 93 1012.1
20260504040504 53 140 0.0 2.0 0.00 0.00 0.00 92 1012.2
20260504035504 53 140 0.0 1.0 0.00 0.00 0.00 92 1012.2
20260504035004 53 140 0.0 2.0 0.00 0.00 0.00 92 1012.2
20260504034505 53 140 1.0 2.0 0.00 0.00 0.00 92 1012.2
20260504033504 53 140 0.0 2.0 0.00 0.00 0.00 92 1012.2
20260504032505 53 140 0.0 1.0 0.00 0.00 0.00 92 1012.1
20260504032005 53 140 0.0 2.0 0.00 0.00 0.00 92 1012.2
20260504030504 53 140 0.0 2.0 0.00 0.00 0.00 92 1012.2
20260504030005 53 140 0.0 2.0 0.00 0.00 0.00 92 1012.2
20260504025006 53 140 0.0 1.0 0.00 0.00 0.00 92 1012.2
20260504024005 53 140 0.0 2.0 0.00 0.00 0.00 92 1012.2
20260504023005 53 140 0.0 1.0 0.00 0.00 0.00 92 1012.1
20260504020504 53 140 1.0 1.0 0.00 0.00 0.00 92 1012.2
20260504015504 53 140 0.0 2.0 0.00 0.00 0.00 92 1012.2
20260504014504 53 140 1.0 3.0 0.00 0.00 0.00 92 1012.1
20260504014004 53 129 1.0 3.0 0.00 0.00 0.00 92 1012.1
20260504012505 53 128 0.0 2.0 0.00 0.00 0.00 92 1012.0
20260504011005 53 128 0.0 1.0 0.00 0.00 0.00 92 1012.0
20260504005004 53 128 1.0 2.0 0.00 0.00 0.00 92 1011.9
20260504004504 53 128 1.0 2.0 0.00 0.00 0.00 93 1011.9
20260504003504 53 128 0.0 1.0 0.00 0.00 0.00 92 1011.9
20260504002505 53 128 0.0 2.0 0.00 0.00 0.00 93 1011.9
20260504001005 53 126 1.0 2.0 0.00 0.00 0.00 93 1011.8
20260504000004 52 123 0.0 3.0 0.00 0.00 0.00 93 1011.8
20260503235504 52 121 1.0 3.0 0.00 0.00 0.00 93 1011.9
20260503234504 52 93 0.0 3.0 0.00 0.00 0.00 92 1011.9
20260503234004 52 93 1.0 3.0 0.00 0.00 0.00 92 1011.8
20260503233004 52 221 1.0 3.0 0.00 0.00 0.00 93 1011.8
20260503232005 52 201 1.0 3.0 0.00 0.00 0.00 93 1011.8
20260503231506 52 190 1.0 3.0 0.00 0.00 0.00 93 1011.8
20260503230004 52 137 1.0 2.0 0.00 0.00 0.00 93 1011.9
20260503225504 52 137 1.0 2.0 0.00 0.00 0.00 93 1011.8
20260503223004 52 194 1.0 2.0 0.00 0.00 0.00 92 1011.7
20260503222004 52 195 0.0 1.0 0.00 0.00 0.00 92 1011.7
20260503221004 52 195 1.0 3.0 0.00 0.00 0.00 92 1011.5
20260503220004 52 168 0.0 2.0 0.00 0.00 0.00 91 1011.6
20260503215004 52 168 1.0 2.0 0.00 0.00 0.00 91 1011.5
20260503213505 52 168 1.0 2.0 0.00 0.00 0.00 90 1011.3
20260503213005 52 168 1.0 2.0 0.00 0.00 0.00 90 1011.3
20260503211505 53 181 1.0 3.0 0.00 0.00 0.00 90 1011.2
20260503211005 53 187 0.0 2.0 0.00 0.00 0.00 90 1011.2
20260503210505 53 187 1.0 3.0 0.00 0.00 0.00 89 1011.1
20260503204504 54 161 1.0 5.0 0.00 0.00 0.00 89 1011.1
20260503203504 54 175 2.0 5.0 0.00 0.00 0.00 89 1010.9
20260503203005 54 225 2.0 3.0 0.00 0.00 0.00 88 1010.8